Flag for Mexico Weather past 2 weeks in Matamoros, Tamaulipas, Mexico

Now
65 °F

Mostly cloudy.


Feels Like: 65 °F
Forecast: 62 / 77 °F
Wind: 12 mph from South

Location: Brownsville / South Padre Island International Airport

Current Time: Dec 26, 2014 at 2:13:24 AM

Latest Report: Dec 26, 2014 at 1:53 AM


Visibility: 9 mi

Pressure: 29.95 "Hg

Humidity: 91%

Dew point: 62 °F

Location of MatamorosLocation

Historic Weather in Matamoros — Graph

°F

Matamoros temperature yesterday

Maximum temperature yesterday: 70 °F (at 12:53 PM)
Minimum temperature yesterday: 39 °F (at 4:53 AM)
Average temperature yesterday: 57 °F

Past Weeks' High & Low Weather Summary

 TemperatureHumidityPressure
High80 °F (Dec 15, 10:53 AM)100% (Dec 16, 2:53 AM)30.27 "Hg (Dec 16, 2:53 AM)
Low39 °F (Dec 25, 4:53 AM)28% (Dec 24, 1:53 PM)29.52 "Hg (Dec 23, 6:53 AM)
Average66 °F80%30.02 "Hg
* Reported Dec 11 12:53 AM — Dec 26 12:53 AM, Matamoros, Weather by CustomWeather, © 2014

Note: Actual official high and low records may vary slightly from our data, if they occured in-between our weather recording intervals... More about our weather records

Advertising

Matamoros weather history for previous 24 hours

 ConditionsComfort  
Time TempWeatherWind HumidityBarometerVisibility
12:53 AM
Dec 26
67 °FOvercast.14 mph79%29.96 "Hg10 mi
11:53 PM
Dec 25
67 °FOvercast.14 mph76%29.98 "Hg10 mi
10:53 PM67 °FOvercast.13 mph73%29.99 "Hg10 mi
9:53 PM67 °FOvercast.14 mph71%30.00 "Hg10 mi
8:53 PM66 °FOvercast.14 mph68%30.00 "Hg10 mi
7:53 PM65 °FOvercast.13 mph68%30.01 "Hg10 mi
6:53 PM65 °FOvercast.13 mph66%30.00 "Hg10 mi
5:53 PM64 °FPassing clouds.12 mph63%29.99 "Hg10 mi
4:53 PM66 °FSunny.14 mph56%30.00 "Hg10 mi
3:53 PM68 °FSunny.18 mph51%30.00 "Hg10 mi
2:53 PM70 °FPartly sunny.18 mph47%30.01 "Hg10 mi
1:53 PM70 °FSunny.25 mph44%30.03 "Hg10 mi
12:53 PM70 °FSunny.24 mph42%30.07 "Hg10 mi
11:53 AM68 °FSunny.21 mph44%30.11 "Hg10 mi
10:53 AM65 °FSunny.13 mph47%30.16 "Hg10 mi
9:53 AM59 °FSunny.8 mph58%30.17 "Hg10 mi
8:53 AM50 °FSunny.3 mph74%30.17 "Hg10 mi
7:53 AM43 °FSunny.5 mph74%30.18 "Hg10 mi
6:53 AM41 °FClear.3 mph82%30.16 "Hg10 mi
5:53 AM41 °FClear.No wind86%30.16 "Hg9 mi
4:53 AM39 °FFog.6 mph86%30.15 "Hg6 mi
3:53 AM40 °FFog.No wind89%30.15 "Hg6 mi
2:53 AM40 °FFog.No wind89%30.16 "Hg6 mi
Weather by CustomWeather, © 2014

See weather overviewHow to use our weather pages